Meadville, PA

1:55 PM EST on December 08, 2019 (GMT -0500)
Port Meadville

Weather History for KGKJ - October, 2019

Change the Weather History Date:

Wednesday, October 16, 2019

  Actual Average Record
Temperature  
Mean Temperature 50 °F -  
Max Temperature 57 °F 63 °F 81 °F (1956)
Min Temperature 42 °F 39 °F 31 °F (1963)
Degree Days  
Heating Degree Days 15    
Moisture  
Dew Point 43 °F    
Average Humidity 83    
Maximum Humidity 93    
Minimum Humidity 53    
Precipitation  
Precipitation 0.85 in - - ()
Sea Level Pressure  
Sea Level Pressure 29.63 in    
Wind  
Wind Speed 7 mph ()    
Max Wind Speed 16 mph    
Max Gust Speed 29 mph    
Visibility 10.0 miles    
Events Rain    
Averages and records for this station are not official NWS values.
T = Trace of Precipitation, MM = Missing Value Source: Averaged Metar Reports

Daily Weather History Graph

Daily Weather History Graph

Search for Another Location

Airport or City:

Astronomy

Oct. 16, 2019 Rise Set
Actual Time 7:33 AM EDT 6:38 PM EDT
Civil Twilight 7:05 AM EDT 7:06 PM EDT
Nautical Twilight 6:33 AM EDT 7:38 PM EDT
Astronomical Twilight 6:01 AM EDT 8:10 PM EDT
Moon 8:29 PM EDT (10/16) 10:04 AM EDT (10/16)
Length of Visible Light 12h 00m
Length of Day
11h 04m
Waning Gibbous, 93% of the Moon is Illuminated
Oct 16
Waning Gibbous
Oct 21
Last Quarter
Oct 27
New
Nov 4
First Quarter
Nov 12
Full

Hourly Weather History & Observations

Time (EDT) Temp. Windchill Dew Point Humidity Pressure Visibility Wind Dir Wind Speed Gust Speed Precip Events Conditions
12:53 AM 55.0 °F - 41.0 °F 59% 29.78 in 10.0 mi Variable 3.5 mph - N/A   Partly Cloudy
1:53 AM 57.0 °F - 39.9 °F 53% 29.75 in 10.0 mi Variable 5.8 mph - N/A   Mostly Cloudy
2:53 AM 57.0 °F - 39.9 °F 53% 29.72 in 10.0 mi Variable 4.6 mph - N/A   Mostly Cloudy
3:53 AM 57.0 °F - 41.0 °F 55% 29.69 in 10.0 mi Variable 6.9 mph - N/A   Overcast
4:53 AM 57.0 °F - 42.1 °F 57% 29.66 in 10.0 mi Variable 5.8 mph - N/A   Overcast
5:43 AM 57.0 °F - 42.1 °F 57% 29.65 in 10.0 mi South 5.8 mph - N/A   Overcast
5:53 AM 57.0 °F - 42.1 °F 57% 29.62 in 10.0 mi Variable 5.8 mph - N/A   Mostly Cloudy
6:53 AM 53.1 °F - 46.0 °F 77% 29.62 in 10.0 mi South 5.8 mph - 0.02 in Rain Light Rain
7:53 AM 52.0 °F - 48.9 °F 89% 29.60 in 10.0 mi South 5.8 mph - 0.06 in Rain Rain
8:53 AM 48.0 °F - 45.0 °F 89% 29.65 in 10.0 mi West 9.2 mph - 0.28 in Rain Rain
8:57 AM 48.0 °F - 45.0 °F 89% 29.65 in 10.0 mi West 10.4 mph - 0.01 in Rain Rain
9:09 AM 46.9 °F - 45.0 °F 93% 29.65 in 10.0 mi West 8.1 mph - 0.03 in Rain Light Rain
9:22 AM 46.9 °F - 45.0 °F 93% 29.65 in 10.0 mi West 8.1 mph - 0.05 in Rain Rain
9:40 AM 46.9 °F - 44.1 °F 90% 29.65 in 10.0 mi WNW 5.8 mph - 0.08 in Rain Rain
9:53 AM 46.9 °F - 44.1 °F 90% 29.65 in 10.0 mi WNW 4.6 mph - 0.11 in Rain Rain
10:53 AM 46.0 °F - 44.1 °F 93% 29.66 in 10.0 mi Calm Calm - 0.14 in Rain Light Rain
11:53 AM 46.9 °F - 45.0 °F 93% 29.62 in 10.0 mi Variable 5.8 mph - 0.09 in Rain Light Rain
12:09 PM 46.9 °F - 44.1 °F 90% 29.62 in 10.0 mi Variable 4.6 mph - 0.00 in Rain Light Rain
12:16 PM 46.9 °F - 45.0 °F 93% 29.63 in 10.0 mi South 5.8 mph - 0.00 in Rain Light Rain
12:49 PM 46.4 °F 42.9 °F 44.6 °F 93% 29.62 in 10.0 mi SSW 6.9 mph - 0.00 in Rain Light Rain
12:53 PM 46.9 °F - 44.1 °F 90% 29.62 in 10.0 mi SW 6.9 mph - 0.01 in Rain Light Rain
1:09 PM 46.9 °F - 44.1 °F 90% 29.62 in 10.0 mi SW 10.4 mph 19.6 mph 0.00 in Rain Light Rain
1:19 PM 46.0 °F 42.5 °F 44.1 °F 93% 29.61 in 10.0 mi SW 6.9 mph - 0.00 in Rain Light Rain
1:27 PM 46.0 °F 40.6 °F 44.1 °F 93% 29.61 in 10.0 mi WSW 11.5 mph - 0.00 in Rain Light Rain
1:53 PM 46.9 °F - 44.1 °F 90% 29.62 in 10.0 mi WSW 10.4 mph - 0.00 in   Overcast
2:46 PM 46.0 °F 41.4 °F 41.0 °F 83% 29.60 in 10.0 mi WSW 9.2 mph - N/A   Overcast
2:53 PM 46.0 °F 41.4 °F 41.0 °F 83% 29.60 in 10.0 mi WSW 9.2 mph - N/A   Overcast
3:53 PM 46.9 °F - 39.0 °F 74% 29.61 in 10.0 mi WSW 11.5 mph - N/A   Overcast
4:53 PM 46.0 °F 39.9 °F 37.9 °F 73% 29.60 in 10.0 mi WSW 13.8 mph 24.2 mph N/A   Overcast
5:53 PM 45.0 °F 40.1 °F 39.0 °F 80% 29.60 in 10.0 mi SW 9.2 mph 18.4 mph N/A   Overcast
6:33 PM 44.1 °F 39.5 °F 41.0 °F 89% 29.59 in 10.0 mi SW 8.1 mph - 0.03 in Rain Light Rain
6:53 PM 44.1 °F 37.7 °F 41.0 °F 89% 29.59 in 10.0 mi SW 12.7 mph - 0.03 in Rain Light Rain
7:04 PM 44.1 °F 39.0 °F 41.0 °F 89% 29.59 in 10.0 mi SW 9.2 mph 18.4 mph 0.00 in Rain Light Rain
7:53 PM 45.0 °F 39.3 °F 42.1 °F 90% 29.60 in 10.0 mi SW 11.5 mph 21.9 mph 0.04 in Rain Light Rain
8:53 PM 46.0 °F 39.9 °F 43.0 °F 89% 29.60 in 10.0 mi West 13.8 mph 24.2 mph 0.01 in Rain Light Rain
9:17 PM 45.0 °F 38.9 °F 42.1 °F 90% 29.60 in 10.0 mi West 12.7 mph 23.0 mph 0.02 in Rain Light Rain
9:53 PM 44.1 °F 38.1 °F 41.0 °F 89% 29.62 in 10.0 mi West 11.5 mph 20.7 mph 0.04 in Rain Light Rain
10:39 PM 43.0 °F 36.8 °F 41.0 °F 93% 29.61 in 10.0 mi West 11.5 mph - 0.01 in Rain Light Rain
10:53 PM 43.0 °F 36.8 °F 39.9 °F 89% 29.63 in 10.0 mi West 11.5 mph 21.9 mph 0.01 in Rain Light Rain
11:29 PM 43.0 °F 36.4 °F 39.0 °F 86% 29.61 in 10.0 mi West 12.7 mph 21.9 mph 0.00 in Rain Light Rain
11:53 PM 42.1 °F 34.2 °F 39.0 °F 89% 29.63 in 10.0 mi West 16.1 mph 28.8 mph 0.01 in Rain Light Rain